sat.trackr.live / text

‹ back to catalog

PIESAT A

NORAD 56153 · 2023-047A

PAYLOAD ACTIVE UNKNOWN

§ Identity

Operator
Country
PRC
Launch date
2023-03-30
Launch site
TAISC
Launch vehicle
Mass (kg)
RCS (m²)

External: N2YO · Heavens-Above · Gunter

§ Orbital elements

Epoch: 2026-05-24T10:22:38.466624Z

Period
95.09 min
Inclination
97.5022°
Eccentricity
0.0001631
Mean motion
15.14311659 rev/d
Perigee alt
521.9 km
Apogee alt
524.2 km
Semi-major
6,901.2 km
B*
1.1578e-4
RAAN
331.9216°
Arg perigee
98.6377°
Mean anomaly
261.5039°
Rev number
17,420

§ Raw data

PIESAT A1 56153U 23047A   26144.43238966  .00002054  00000+0  11578-3 0  99992 56153  97.5022 331.9216 0001631  98.6377 261.5039 15.14311659174209

JSON: /api/v1/satellites/56153 · /tle

For live sub-satellite position, see the globe view (requires WebGL).

§ Visibility from observer

Set your observer location to see the next 7 days of passes ≥ 10°. The values pass through the URL so the page stays shareable.

No JS? Fill the form by hand. The geolocation button needs JavaScript.